[[{"header":{"parameterUnit":"m.s-1","parameterCategory":1,"la1":30.2991,"la2":30.254,"lo1":-89.0895,"lo2":-89.0444,"dy":0.0017,"dx":0.0017,"nx":28,"ny":28,"refTime":"2025-03-10T09:00:00:Z","depth":0,"parameterNumber":2,"parameterNumberName":"U-component_of_WINDS"},"data":[0,0,0,0,0,0,0,0,0,0,0,0,0,0,0,0,0,0,0,0,0,0,0,0,0,0,0,0,0,0,0,0,0,0,0,0,0,0,0,0,0,0,0,0,0,0,0,0,0,0,0,0,0,0,0,0,0,0,1.2841,1.2841,0,1.2914,1.2915,1.2916,1.2948,1.2948,1.2948,1.2948,1.3025,1.3027,1.303,0,0,0,0,0,0,0,0,0,0,0,0,0,1.2729,1.2731,1.2841,1.2841,1.2842,1.2914,1.2915,1.2916,1.2948,1.2948,1.2948,1.2948,1.3025,1.3027,1.303,0,0,0,0,0,0,0,0,0,0,0,0,0,1.2788,1.2732,1.284,1.2867,1.287,1.2914,1.2915,1.2916,1.2948,1.2948,1.2948,1.2947,1.3024,1.3027,1.303,1.3054,0,0,1.304,1.3041,0,0,0,0,0,0,0,0,1.2784,1.2792,1.2862,1.2865,1.2869,1.2922,1.2904,1.2963,1.2948,1.2918,1.2948,1.2947,1.2991,1.2997,1.3011,1.3058,1.3061,1.304,1.3042,1.3044,1.3045,0,0,0,0,0,0,0,1.278,1.2789,1.287,1.2863,1.2867,1.2876,1.2884,1.2916,1.2955,1.2921,1.2923,1.2932,1.2993,1.3008,1.3013,1.3062,1.304,1.3043,1.3045,1.3046,1.3132,1.3132,0,0,0,0,0,0,1.2772,1.2785,1.2867,1.2872,1.2825,1.2878,1.2887,1.2905,1.2955,1.2962,1.2932,1.2933,1.3003,1.301,1.3016,1.3048,1.3044,1.3047,1.3049,1.3132,1.3132,1.3132,0,0,0,0,0,0,1.2769,1.2779,1.2865,1.2829,1.2841,1.288,1.29,1.2906,1.2922,1.2963,1.297,1.294,1.3003,1.3012,1.3044,1.3051,1.3048,1.3051,1.3131,1.3132,1.3132,1.311,0,0,0,0,0,0,1.2766,1.2778,1.2787,1.2829,1.2843,1.2891,1.29,1.2908,1.2927,1.2929,1.2972,1.2979,1.3003,1.3039,1.3047,1.3055,1.3054,1.3131,1.3131,1.3132,1.3111,1.311,1.3109,0,0,0,0,0,1.2762,1.2778,1.2787,1.2797,1.2855,1.2891,1.2899,1.2925,1.2927,1.2937,1.2963,1.2978,1.3049,1.3042,1.3052,1.3061,1.3131,1.3131,1.3132,1.3111,1.311,1.3109,0,0,0,0,0,0,1.2736,1.2784,1.2795,1.2825,1.2853,1.2896,1.2909,1.2923,1.2952,1.2953,1.2986,1.2995,1.3025,1.3046,1.3038,1.3087,1.3091,1.3093,1.3072,1.3071,1.3071,1.3065,1.3057,0,0,0,0,0,1.2733,1.2758,1.2799,1.2822,1.2836,1.287,1.2887,1.2905,1.2936,1.2948,1.2977,1.3007,1.3036,1.3055,1.3084,1.3114,1.3124,1.3125,1.3124,1.3123,1.3125,1.3143,1.3144,1.3135,1.3135,1.3135,0,0,1.2729,1.2759,1.2772,1.2818,1.2842,1.2867,1.288,1.2906,1.2926,1.2953,1.2985,1.3007,1.3043,1.3074,1.309,1.3093,1.313,1.3124,1.3123,1.3126,1.3144,1.3145,1.3145,1.3135,1.3135,1.3135,0,0,1.2734,1.2759,1.2781,1.2804,1.2841,1.2863,1.2868,1.2909,1.2925,1.2957,1.2978,1.3002,1.3051,1.3076,1.3095,1.3109,1.3124,1.3118,1.3115,1.3132,1.3132,1.3133,1.3139,1.314,1.312,1.312,1.312,0,1.2725,1.2763,1.279,1.2815,1.2835,1.2859,1.2882,1.2904,1.2948,1.2962,1.2964,1.3027,1.3053,1.309,1.3094,1.3108,1.3116,1.3113,1.313,1.3131,1.3132,1.3138,1.314,1.3119,1.3119,1.3119,1.3119,0,1.275,1.2776,1.2789,1.2831,1.2852,1.2876,1.2907,1.2925,1.2941,1.2963,1.2997,1.3028,1.3064,1.3075,1.3091,1.3114,1.3115,1.3124,1.3129,1.3132,1.3138,1.314,1.3117,1.3118,1.3118,1.3118,0,0,1.2741,1.2796,1.2801,1.282,1.2862,1.2883,1.2908,1.2943,1.2958,1.2987,1.301,1.305,1.3058,1.308,1.3099,1.3114,1.3123,1.312,1.3122,1.312,1.3152,1.3145,1.3147,1.3133,1.3134,1.3134,1.3149,0,1.2752,1.2797,1.2822,1.2857,1.2883,1.2906,1.2928,1.2956,1.2978,1.3003,1.3027,1.3056,1.3064,1.3077,1.3092,1.3119,1.313,1.3118,1.3155,1.3156,1.3145,1.315,1.3144,1.3156,1.3151,1.3152,1.3152,0,1.2771,1.2799,1.2837,1.2876,1.2887,1.2906,1.294,1.2963,1.2996,1.3011,1.3035,1.3054,1.3082,1.3084,1.3123,1.3114,1.3131,1.3146,1.3147,1.3152,1.3154,1.3156,1.3161,1.3163,1.3156,1.3155,1.3155,0,1.2761,1.2809,1.2837,1.2853,1.2899,1.2912,1.2932,1.2964,1.2984,1.3013,1.3026,1.3058,1.3076,1.3102,1.3129,1.3128,1.3166,1.317,1.3179,1.3178,1.3186,1.3186,1.3195,1.3196,1.3196,1.3196,1.3196,0,1.2771,1.2793,1.2834,1.2851,1.2877,1.2906,1.293,1.2952,1.2981,1.3004,1.3026,1.3047,1.3082,1.3107,1.3129,1.3158,1.3166,1.318,1.3185,1.3178,1.3176,1.3189,1.3189,1.3197,1.3197,1.3197,1.3196,0,1.2764,1.2792,1.2825,1.2866,1.2877,1.2894,1.2929,1.2947,1.297,1.2998,1.3007,1.3042,1.3073,1.3103,1.3145,1.3159,1.3189,1.3196,1.3178,1.3181,1.3188,1.3187,1.3206,1.321,1.3209,1.3209,1.3209,0,1.2769,1.2786,1.2829,1.2845,1.2865,1.2891,1.291,1.294,1.2959,1.2997,1.3011,1.3044,1.3072,1.312,1.315,1.3182,1.3191,1.3195,1.3196,1.3188,1.3191,1.319,1.3192,1.3195,1.3195,1.3195,1.3194,0,1.2774,1.2787,1.2814,1.2846,1.2868,1.2895,1.2922,1.2934,1.2969,1.299,1.3021,1.3043,1.3085,1.3117,1.3153,1.3174,1.319,1.3194,1.3198,1.3191,1.3179,1.3186,1.3176,1.3193,1.3194,1.3194,1.3194,1.3194,1.2774,1.2791,1.2823,1.2852,1.2876,1.2901,1.292,1.2944,1.2971,1.3007,1.3023,1.3055,1.3088,1.3137,1.3158,1.3184,1.3188,1.3193,1.3195,1.3196,1.3194,1.3175,1.3191,1.3191,1.3191,1.3191,1.3191,0,1.2781,1.2803,1.2829,1.2866,1.2889,1.2902,1.2932,1.2951,1.2979,1.3008,1.3034,1.3071,1.3102,1.3134,1.3168,1.3182,1.319,1.319,1.319,1.3194,1.3189,1.3182,1.3183,1.3183,1.3183,1.3183,1.3183,1.3183,1.2787,1.2816,1.2832,1.2873,1.2895,1.2927,1.2943,1.2967,1.299,1.3029,1.3055,1.3076,1.3106,1.3142,1.3171,1.318,1.3191,1.3189,1.32,1.3194,1.3195,1.3195,1.3189,1.3191,1.3191,1.3203,1.3203,1.3203]},{"header":{"parameterUnit":"m.s-1","parameterCategory":1,"la1":30.2991,"la2":30.254,"lo1":-89.0895,"lo2":-89.0444,"dy":0.0017,"dx":0.0017,"nx":28,"ny":28,"refTime":"2025-03-10T09:00:00:Z","depth":0,"parameterNumber":3,"parameterNumberName":"V-component_of_WINDS"},"data":[0,0,0,0,0,0,0,0,0,0,0,0,0,0,0,0,0,0,0,0,0,0,0,0,0,0,0,0,0,0,0,0,0,0,0,0,0,0,0,0,0,0,0,0,0,0,0,0,0,0,0,0,0,0,0,0,0,0,1.6429,1.6429,0,1.6391,1.6391,1.6391,1.6369,1.6369,1.6369,1.6369,1.6329,1.6329,1.6328,0,0,0,0,0,0,0,0,0,0,0,0,0,1.648,1.6479,1.6429,1.6429,1.6428,1.6391,1.6391,1.639,1.6369,1.6369,1.6369,1.6369,1.633,1.6329,1.6327,0,0,0,0,0,0,0,0,0,0,0,0,0,1.6451,1.6479,1.6429,1.6413,1.6411,1.6392,1.6391,1.639,1.6369,1.6369,1.6369,1.6369,1.633,1.6329,1.6327,1.632,0,0,1.6323,1.6322,0,0,0,0,0,0,0,0,1.6453,1.645,1.6416,1.6414,1.6412,1.6385,1.6394,1.6367,1.6369,1.6385,1.6369,1.6369,1.6348,1.6345,1.6338,1.6318,1.6317,1.6323,1.6322,1.6321,1.6321,0,0,0,0,0,0,0,1.6455,1.6451,1.6414,1.6415,1.6413,1.6407,1.6403,1.6389,1.6368,1.6384,1.6382,1.6378,1.6347,1.634,1.6337,1.6316,1.6323,1.6321,1.632,1.632,1.6285,1.6285,0,0,0,0,0,0,1.646,1.6453,1.6415,1.6413,1.6433,1.6406,1.6402,1.6394,1.6368,1.6364,1.6378,1.6377,1.6342,1.6339,1.6336,1.6324,1.6321,1.632,1.6319,1.6285,1.6285,1.6285,0,0,0,0,0,0,1.6461,1.6457,1.6417,1.6432,1.6427,1.6405,1.6397,1.6393,1.6386,1.6363,1.6359,1.6375,1.6342,1.6338,1.6324,1.6322,1.6319,1.6318,1.6285,1.6285,1.6285,1.6301,0,0,0,0,0,0,1.6463,1.6457,1.6455,1.6433,1.6426,1.6406,1.6397,1.6392,1.6383,1.6382,1.6359,1.6355,1.6342,1.6326,1.6322,1.632,1.6316,1.6285,1.6285,1.6285,1.6301,1.6302,1.6302,0,0,0,0,0,1.6465,1.6461,1.6455,1.6451,1.6423,1.6406,1.6403,1.6387,1.6384,1.638,1.6366,1.6356,1.6323,1.6325,1.632,1.6318,1.6286,1.6285,1.6285,1.63,1.6301,1.6302,0,0,0,0,0,0,1.6484,1.6458,1.6451,1.6441,1.6426,1.6403,1.6399,1.6389,1.6375,1.6374,1.6355,1.635,1.6337,1.6326,1.6328,1.6308,1.6303,1.6302,1.6316,1.6317,1.6318,1.632,1.6315,0,0,0,0,0,1.6488,1.6477,1.6454,1.6447,1.644,1.6421,1.6413,1.6402,1.6386,1.6379,1.6364,1.6348,1.6333,1.6325,1.631,1.6299,1.6292,1.6295,1.6295,1.6296,1.6296,1.6286,1.6286,1.6285,1.6285,1.6285,0,0,1.6494,1.6478,1.6473,1.6451,1.6438,1.6426,1.6416,1.6404,1.6395,1.6378,1.6363,1.6351,1.6331,1.6318,1.6311,1.6308,1.6294,1.6296,1.6297,1.6296,1.6286,1.6286,1.6286,1.6285,1.6285,1.6285,0,0,1.65,1.6487,1.6479,1.6466,1.6447,1.6434,1.6432,1.641,1.6401,1.6386,1.6372,1.636,1.6337,1.6323,1.6313,1.6311,1.6301,1.6306,1.6311,1.6302,1.6302,1.6302,1.63,1.63,1.6306,1.6306,1.6306,0,1.651,1.6492,1.6476,1.6465,1.6455,1.6438,1.6429,1.6417,1.6394,1.6387,1.6384,1.6352,1.6338,1.632,1.632,1.6313,1.6308,1.6309,1.6304,1.6304,1.6303,1.6301,1.63,1.6307,1.6307,1.6307,1.6306,0,1.6505,1.6493,1.6489,1.6466,1.6456,1.6446,1.6427,1.6417,1.6407,1.6394,1.6377,1.636,1.6341,1.6336,1.6326,1.6315,1.6314,1.6308,1.6302,1.6304,1.6302,1.6301,1.6308,1.6307,1.6307,1.6307,0,0,1.6523,1.6491,1.6489,1.6478,1.6455,1.6445,1.6433,1.6414,1.6406,1.639,1.6378,1.6358,1.6351,1.634,1.6328,1.632,1.6317,1.6314,1.6313,1.6314,1.6302,1.6307,1.6306,1.631,1.631,1.631,1.6303,0,1.6524,1.6503,1.6487,1.6471,1.6459,1.6442,1.6431,1.6415,1.6402,1.6388,1.6373,1.6358,1.6351,1.6344,1.6336,1.6319,1.6314,1.632,1.6298,1.6297,1.6303,1.6305,1.631,1.6305,1.6302,1.6302,1.6302,0,1.6523,1.6507,1.649,1.6467,1.6461,1.6452,1.6432,1.642,1.64,1.6391,1.6377,1.6364,1.6349,1.6345,1.6323,1.6327,1.6317,1.6307,1.6307,1.6303,1.63,1.63,1.6303,1.6302,1.6301,1.6301,1.6301,0,1.6536,1.6511,1.6497,1.6488,1.646,1.6454,1.6442,1.6422,1.6411,1.6394,1.6386,1.6367,1.6356,1.6341,1.6323,1.6322,1.6302,1.6297,1.6292,1.6293,1.6289,1.6289,1.6289,1.6284,1.6284,1.6284,1.6284,0,1.6539,1.6528,1.6502,1.6493,1.6481,1.6462,1.6449,1.6436,1.6418,1.6405,1.6389,1.6378,1.6355,1.6339,1.6325,1.6308,1.6303,1.6294,1.629,1.6295,1.6296,1.6288,1.6287,1.6284,1.6284,1.6284,1.6284,0,1.6551,1.6533,1.6516,1.6491,1.6484,1.6476,1.6453,1.6443,1.6429,1.6413,1.6408,1.6384,1.6365,1.6346,1.632,1.631,1.6293,1.6288,1.63,1.6297,1.6293,1.6294,1.6287,1.6284,1.6283,1.6283,1.6283,0,1.6553,1.6545,1.6518,1.6509,1.6497,1.6482,1.6471,1.6451,1.644,1.6415,1.6408,1.6388,1.6371,1.6341,1.6321,1.63,1.6294,1.6293,1.6291,1.6296,1.6293,1.6293,1.6291,1.6294,1.6294,1.6294,1.6294,0,1.6559,1.655,1.6535,1.6515,1.6502,1.6486,1.6469,1.6462,1.6439,1.6426,1.6407,1.6393,1.6366,1.6346,1.6323,1.6309,1.6297,1.6295,1.6293,1.6297,1.6304,1.6298,1.6301,1.6295,1.6295,1.6295,1.6295,1.6295,1.6565,1.6557,1.6536,1.6519,1.6504,1.6488,1.6477,1.646,1.6444,1.6421,1.641,1.639,1.6368,1.6336,1.6322,1.6305,1.6302,1.6299,1.6298,1.6297,1.6297,1.6307,1.6301,1.6301,1.6301,1.6301,1.6301,0,1.6569,1.6555,1.6539,1.6516,1.6502,1.6492,1.6472,1.6461,1.6444,1.6425,1.6408,1.6384,1.6363,1.6341,1.6319,1.6309,1.6303,1.6304,1.6304,1.6301,1.6302,1.6306,1.6309,1.6309,1.6309,1.6309,1.6309,1.6309,1.6569,1.6553,1.6542,1.6517,1.6503,1.6483,1.6473,1.6457,1.6442,1.6416,1.6399,1.6385,1.6364,1.6339,1.632,1.6313,1.6305,1.6307,1.63,1.6302,1.6301,1.63,1.6304,1.6306,1.6306,1.6299,1.6299,1.6299]}]]